This demonstration page uses our WeatherBlox Daily Observations layout. Learn more.

Left ArrowRight Arrow

Hourly Observations for January 17, 2018

Temp ( °F °C ) Dew Point ( °F °C ) Humidity (%) Winds ( mph kmh ) Pressure ( in mb ) Visibility ( mi km ) Precip ( " mm )
12:53 am 00:53 Clear 4 -15.6 -2 -18.9 76 76 SSW 9 15 30.65 1038 10 16 0.00 0.00
1:53 am 01:53 Clear 5 -15 -2 -18.9 72 72 SSW 7 11 30.63 1037 10 16 0.00 0.00
2:53 am 02:53 Clear 4 -15.6 -2 -18.9 76 76 SSW 7 11 30.63 1037 10 16 0.00 0.00
3:53 am 03:53 Clear 4 -15.6 -2 -18.9 76 76 SSW 8 13 30.62 1037 10 16 0.00 0.00
4:53 am 04:53 Clear 6 -14.4 -1 -18.3 73 73 SSW 9 15 30.60 1036 10 16 0.00 0.00
5:53 am 05:53 Clear 6 -14.4 -1 -18.3 73 73 SSW 9 15 30.58 1036 10 16 0.00 0.00
6:53 am 06:53 Clear 7 -13.9 -1 -18.3 70 70 SSW 12 19 30.56 1035 10 16 0.00 0.00
7:53 am 07:53 Clear 6 -14.4 -1 -18.3 73 73 SW 10 17 30.56 1035 10 16 0.00 0.00
8:53 am 08:53 Sunny 8 -13.3 -1 -18.3 66 66 SSW 12 19 30.56 1035 10 16 0.00 0.00
9:53 am 09:53 Sunny 13 -10.6 1 -17.2 59 59 SSW 10 17 30.56 1035 10 16 0.00 0.00
10:53 am 10:53 Sunny 18 -7.8 4 -15.6 54 54 SW 12 19 30.56 1035 10 16 0.00 0.00
11:53 am 11:53 Sunny 21 -6.1 6 -14.4 52 52 SW 13 20 30.53 1034 10 16 0.00 0.00
12:53 pm 12:53 Sunny 25 -3.9 8 -13.3 48 48 SSW 14 22 30.49 1032 10 16 0.00 0.00
1:53 pm 13:53 Sunny 27 -2.8 10 -12.2 49 49 SSW 13 20 30.45 1031 10 16 0.00 0.00
2:53 pm 14:53 Sunny 29 -1.7 12 -11.1 49 49 SSW 12 19 30.43 1031 10 16 0.00 0.00
3:53 pm 15:53 Sunny 31 -0.6 13 -10.6 47 47 SSW 10 17 30.42 1030 10 16 0.00 0.00
4:53 pm 16:53 Sunny 31 -0.6 13 -10.6 47 47 SSW 8 13 30.42 1030 10 16 0.00 0.00
5:53 pm 17:53 Clear 29 -1.7 13 -10.6 51 51 SSW 8 13 30.41 1030 10 16 0.00 0.00
6:53 pm 18:53 Clear 28 -2.2 13 -10.6 53 53 SSW 9 15 30.41 1030 10 16 0.00 0.00
7:53 pm 19:53 Clear 27 -2.8 13 -10.6 55 55 SSW 9 15 30.40 1030 10 16 0.00 0.00
8:53 pm 20:53 Clear 23 -5 12 -11.1 63 63 SSW 6 9 30.39 1029 10 16 0.00 0.00
9:53 pm 21:53 Clear 23 -5 12 -11.1 63 63 SSW 9 15 30.35 1028 10 16 0.00 0.00
10:53 pm 22:53 Clear 21 -6.1 12 -11.1 68 68 SW 8 13 30.33 1027 10 16 0.00 0.00
11:53 pm 23:53 Clear 20 -6.7 12 -11.1 71 71 SW 6 9 30.31 1027 10 16 0.00 0.00

Powered by AerisWeather